Jordan, MT

12:07 PM MDT on October 01, 2016 (GMT -0600)
Jordan

Weather History for KJDN - September, 2012

Change the Weather History Date:

Thursday, September 27, 2012

  Actual Average Record
Temperature  
Mean Temperature 60 °F 52 °F  
Max Temperature 75 °F 67 °F 93 °F (1963)
Min Temperature 44 °F 37 °F 18 °F (1935)
Degree Days  
Heating Degree Days 5 13  
Month to date heating degree days 129 220  
Since 1 July heating degree days 161 285  
Cooling Degree Days 0 0  
Month to date cooling degree days 30 24  
Year to date cooling degree days 728 417  
Growing Degree Days 10 (Base 50)    
Moisture  
Dew Point 42 °F    
Average Humidity 62    
Maximum Humidity 92    
Minimum Humidity 31    
Precipitation  
Precipitation 0.00 in 0.04 in 0.97 in (1987)
Month to date precipitation 0.03 1.10  
Year to date precipitation 5.75 11.02  
Snow  
Snow 0.00 in - - ()
Month to date snowfall 0.0  
Since 1 July snowfall 0.0  
Since 1 September snowfall 0.0  
Snow Depth 0.00 in    
Sea Level Pressure  
Sea Level Pressure 30.11 in    
Wind  
Wind Speed 5 mph (NW)    
Max Wind Speed 12 mph    
Max Gust Speed 21 mph    
T = Trace of Precipitation, MM = Missing Value Source: NWS Daily Summary

Daily Weather History Graph

Daily Weather History Graph

Search for Another Location

Airport or City:

Trip Planner

Search our weather history database for the weather conditions in past years. The results will help you decide how hot, cold, wet, or windy it might be!

Date:

Astronomy

Sep. 27, 2012 Rise Set
Actual Time 7:02 AM MDT 6:54 PM MDT
Civil Twilight 6:31 AM MDT 7:24 PM MDT
Nautical Twilight 5:55 AM MDT 8:00 PM MDT
Astronomical Twilight 5:19 AM MDT 8:36 PM MDT
Moon 5:32 PM MDT (9/27) 4:26 AM MDT (9/27)
Length of Visible Light 12h 53m
Length of Day
11h 52m
Waxing Gibbous, 94% of the Moon is Illuminated
Sep 27
Waxing Gibbous
Sep 29
Full
Oct 8
Last Quarter
Oct 15
New
Oct 21
First Quarter

Hourly Weather History & Observations

Time (MDT) Temp. Windchill Dew Point Humidity Pressure Visibility Wind Dir Wind Speed Gust Speed Precip Events Conditions
12:48 AM 54.0 °F - 43.0 °F 66% 30.10 in - SSW 4.6 mph - N/A   Unknown
1:48 AM 52.0 °F - 43.0 °F 71% 30.09 in - SW 3.5 mph - N/A   Unknown
2:48 AM 50.0 °F - 43.0 °F 77% 30.10 in - West 5.8 mph - N/A   Unknown
3:48 AM 48.0 °F - 44.1 °F 86% 30.10 in - WSW 4.6 mph - N/A   Unknown
4:48 AM 50.0 °F - 45.0 °F 83% 30.11 in - West 3.5 mph - N/A   Unknown
5:48 AM 46.0 °F 44.8 °F 42.1 °F 86% 30.12 in - West 3.5 mph - N/A   Unknown
6:48 AM 45.0 °F 41.8 °F 43.0 °F 93% 30.13 in - WNW 5.8 mph - N/A   Unknown
7:48 AM 46.0 °F 44.8 °F 43.0 °F 89% 30.15 in - WNW 3.5 mph - N/A   Unknown
8:48 AM 50.0 °F - 45.0 °F 83% 30.15 in - West 3.5 mph - N/A   Unknown
9:48 AM 57.9 °F - 46.9 °F 67% 30.15 in - West 4.6 mph - N/A   Unknown
10:48 AM 66.0 °F - 45.0 °F 47% 30.13 in - North 5.8 mph - N/A   Unknown
11:48 AM 70.0 °F - 43.0 °F 38% 30.12 in - NNE 8.1 mph - N/A   Unknown
12:48 PM 72.0 °F - 44.1 °F 37% 30.11 in - NE 8.1 mph - N/A   Unknown
1:48 PM 72.0 °F - 42.1 °F 34% 30.10 in - Calm Calm - N/A   Unknown
2:48 PM 75.0 °F - 42.1 °F 31% 30.08 in - North 5.8 mph - N/A   Unknown
3:48 PM 75.0 °F - 42.1 °F 31% 30.07 in - ENE 8.1 mph 20.7 mph N/A   Unknown
4:48 PM 73.9 °F - 42.1 °F 32% 30.08 in - ENE 5.8 mph - N/A   Unknown
5:48 PM 73.0 °F - 41.0 °F 31% 30.07 in - East 4.6 mph - N/A   Unknown
6:48 PM 64.0 °F - 39.9 °F 41% 30.09 in - NNE 6.9 mph - N/A   Unknown
7:48 PM 60.1 °F - 39.9 °F 47% 30.11 in - NNE 8.1 mph - N/A   Unknown
8:48 PM 55.9 °F - 39.0 °F 53% 30.11 in - Calm Calm - N/A   Unknown
10:48 PM 48.0 °F - 36.0 °F 63% 30.10 in - Calm Calm - N/A   Unknown
11:48 PM 46.0 °F 43.9 °F 35.1 °F 66% 30.10 in - WNW 4.6 mph - N/A   Unknown